sat.trackr.live / text

‹ back to catalog

STARLINK-34259

NORAD 65368 · 2025-190T

PAYLOAD ACTIVE UNKNOWN

§ Identity

Operator
Country
US
Launch date
2025-08-28
Launch site
AFETR
Launch vehicle
Mass (kg)
RCS (m²)

Purposes: comms

External: N2YO · Heavens-Above · Gunter

§ Orbital elements

Epoch: 2026-05-24T12:09:39.413952Z

Period
93.86 min
Inclination
53.1588°
Eccentricity
0.0001401
Mean motion
15.34146517 rev/d
Perigee alt
462.5 km
Apogee alt
464.4 km
Semi-major
6,841.6 km
B*
9.7270e-3
RAAN
175.9796°
Arg perigee
84.5764°
Mean anomaly
275.5399°
Rev number
4,136

§ Raw data

STARLINK-342591 65368U 25190T   26144.50670618  .00340853  00000+0  97270-2 0  99942 65368  53.1588 175.9796 0001401  84.5764 275.5399 15.34146517 41365

JSON: /api/v1/satellites/65368 · /tle

For live sub-satellite position, see the globe view (requires WebGL).

§ Visibility from observer

Set your observer location to see the next 7 days of passes ≥ 10°. The values pass through the URL so the page stays shareable.

No JS? Fill the form by hand. The geolocation button needs JavaScript.